Spokane Fairchild, WA
on Monday, December 3, 2012

Monday
Previous Day Next Day
Daily Summary
 ActualAverage (KGEG)Record (KGEG)
Temperature
Mean Temperature °F 29°F  
Max Temperature 47°F 34°F 55°F (1918)
Min Temperature 37°F 25°F -4°F (1919)
Degree Days
Heating Degree Days 23 36  
Month to date heating degree days 106  
Since 1 July heating degree days 1773  
Cooling Degree Days 0 0  
Month to date cooling degree days 0  
Year to date cooling degree days 450  
Moisture
Dew Point 40°F   
Average Humidity 97    
Maximum Humidity 100    
Minimum Humidity 74    
Precipitation
Precipitation 0.00 in 0.09 in 1.18 in (2007)
Month to date precipitation 0.26  
Year to date precipitation 14.52  
Snow
Snow 0.00 in 0.40 in 3.70 in (1947)
Month to date snowfall 1.2  
Since 1 July snowfall 8.7  
Snow Depth in   
Wind
Wind Speed 15 mph   
Max Wind Speed 28 mph   
Max Gust Speed 36 mph   
Visibility 10 miles   
Events Snow   

Key: T is trace of precipitation, MM is missing value
Source: NWS Daily Summary
Time(PST)TemperatureDew PointHumidity Pressure Visibility Wind DirectionWind SpeedGust SpeedPrecipitationEvents Conditions
12:58 AM 38.1°F 38.1°F 100% 29.86 in 10.0 miles SSW 18.4 mph 26.5 mph N/A   Scattered Clouds
1:58 AM 38.7°F 38.7°F 100% 29.88 in 10.0 miles SSW 17.3 mph 21.9 mph N/A   Scattered Clouds
2:58 AM 39.4°F 39.2°F 99% 29.89 in 10.0 miles SSW 13.8 mph 24.2 mph N/A   Clear
3:58 AM 39.6°F 39.0°F 98% 29.89 in 10.0 miles SSW 12.7 mph - N/A   Partly Cloudy
4:58 AM 39.6°F 38.8°F 97% 29.91 in 10.0 miles SSW 16.1 mph 24.2 mph N/A   Mostly Cloudy
5:58 AM 38.5°F 38.5°F 100% 29.92 in 10.0 miles SSW 18.4 mph 25.3 mph N/A   Clear
6:42 AM 37.4°F 37.4°F 100% 29.89 in 10.0 miles SSW 17.3 mph 23.0 mph N/A Snow Light Snow
6:52 AM 37.4°F 37.4°F 100% 29.89 in 10.0 miles SSW 15.0 mph - N/A   Clear
6:58 AM 37.8°F 37.8°F 100% 29.95 in 10.0 miles SSW 17.3 mph 21.9 mph 0.00 in   Clear
7:03 AM 37.4°F 37.4°F 100% 29.89 in 10.0 miles SSW 13.8 mph 21.9 mph N/A Snow Light Snow
7:21 AM 37.4°F 37.4°F 100% 29.90 in 10.0 miles SSW 16.1 mph 21.9 mph N/A   Clear
7:29 AM 37.4°F 37.4°F 100% 29.90 in 10.0 miles SSW 15.0 mph - N/A Snow Light Snow
7:30 AM 37.4°F 37.4°F 100% 29.90 in 10.0 miles SSW 16.1 mph - N/A   Clear
7:58 AM 37.9°F 37.9°F 100% 29.96 in 10.0 miles SSW 16.1 mph - 0.00 in   Clear
8:12 AM 39.2°F 39.2°F 100% 29.91 in 10.0 miles SSW 18.4 mph - N/A   Clear
8:41 AM 39.2°F 39.2°F 100% 29.92 in 10.0 miles SSW 17.3 mph 23.0 mph N/A   Scattered Clouds
8:49 AM 41.0°F 41.0°F 100% 29.93 in 10.0 miles SSW 19.6 mph 25.3 mph N/A   Mostly Cloudy
8:56 AM 41.0°F 41.0°F 100% 29.93 in 10.0 miles SSW 16.1 mph 25.3 mph N/A   Mostly Cloudy
8:58 AM 41.0°F 41.0°F 100% 29.98 in 10.0 miles SSW 17.3 mph 25.3 mph 0.00 in   Mostly Cloudy
9:03 AM 41.0°F 41.0°F 100% 29.93 in 10.0 miles SSW 15.0 mph 24.2 mph N/A   Overcast
9:22 AM 41.0°F 41.0°F 100% 29.95 in 10.0 miles SSW 19.6 mph 26.5 mph N/A   Overcast
9:58 AM 42.1°F 41.9°F 99% 30.01 in 10.0 miles SW 21.9 mph 26.5 mph 0.00 in   Overcast
10:58 AM 45.0°F 41.0°F 86% 30.03 in 10.0 miles SW 20.7 mph 29.9 mph N/A   Mostly Cloudy
11:58 AM 46.8°F 41.0°F 80% 30.01 in 10.0 miles SW 27.6 mph 35.7 mph N/A   Mostly Cloudy
12:58 PM 46.9°F 40.3°F 78% 30.02 in 10.0 miles SW 20.7 mph 31.1 mph N/A   Scattered Clouds
1:58 PM 47.5°F 39.6°F 74% 30.02 in 10.0 miles SW 21.9 mph 26.5 mph N/A   Mostly Cloudy
2:58 PM 44.4°F 41.9°F 91% 30.04 in 10.0 miles SSW 12.7 mph - N/A   Overcast
3:58 PM 43.5°F 42.6°F 97% 30.07 in 10.0 miles SSW 11.5 mph - N/A   Mostly Cloudy
4:58 PM 42.3°F 42.3°F 100% 30.08 in 10.0 miles SSW 11.5 mph - N/A   Scattered Clouds
5:58 PM 41.2°F 41.2°F 100% 30.07 in 10.0 miles South 6.9 mph - N/A   Scattered Clouds
6:58 PM 41.0°F 41.0°F 100% 30.07 in 10.0 miles South 4.6 mph - N/A   Partly Cloudy
7:51 PM 41.0°F 41.0°F 100% 30.01 in 10.0 miles SSE 8.1 mph - N/A   Mostly Cloudy
7:58 PM 40.6°F 40.6°F 100% 30.06 in 10.0 miles SSE 8.1 mph - 0.00 in   Overcast
8:16 PM 41.0°F 41.0°F 100% 30.01 in 10.0 miles SSE 6.9 mph - N/A   Overcast
8:58 PM 40.1°F 40.1°F 100% 30.04 in 10.0 miles ESE 4.6 mph - 0.00 in   Overcast
9:09 PM 39.2°F 39.2°F 100% 29.99 in 10.0 miles SE 4.6 mph - N/A   Overcast
9:19 PM 39.2°F 39.2°F 100% 29.99 in 10.0 miles SSE 6.9 mph - N/A   Overcast
9:24 PM 41.0°F 41.0°F 100% 29.99 in 10.0 miles SSE 8.1 mph - N/A   Overcast
9:25 PM 41.0°F 41.0°F 100% 29.98 in 10.0 miles SE 9.2 mph - N/A   Overcast
9:26 PM 41.0°F 41.0°F 100% 29.98 in 10.0 miles SE 8.1 mph - N/A   Overcast
9:45 PM 41.0°F 41.0°F 100% 29.98 in 10.0 miles SE 5.8 mph - N/A   Mostly Cloudy
9:58 PM 41.0°F 40.1°F 97% 30.01 in 10.0 miles SSE 5.8 mph - 0.00 in   Scattered Clouds
10:07 PM 41.0°F 39.2°F 93% 29.96 in 10.0 miles SE 8.1 mph - N/A   Partly Cloudy
10:19 PM 41.0°F 39.2°F 93% 29.96 in 10.0 miles SE 8.1 mph - N/A   Partly Cloudy
10:52 PM 41.0°F 37.4°F 87% 29.94 in 10.0 miles ESE 9.2 mph - N/A   Clear
10:58 PM 41.5°F 37.9°F 87% 29.98 in 10.0 miles SE 10.4 mph - 0.00 in   Clear
10:59 PM 41.0°F 37.4°F 87% 29.94 in 10.0 miles ESE 10.4 mph - N/A   Clear
11:58 PM 39.2°F 39.2°F 100% 29.94 in 10.0 miles ESE 8.1 mph - 0.00 in   Clear
Moon Phase
Dec. 03 Dec. 06 Dec. 13 Dec. 20 Dec. 28
Sunrise:07:21 AM (PST) Moon Rise:09:03 PM (PST)12/3
Sunset:04:00 PM (PST) Moon Set:10:36 AM (PST)12/3

Copyright © 2014 The Weather Underground, Inc.